Weather History for Alexandria Esle, LA

Change the Weather History Date:

Monday, February 4, 2013

  Actual Average Record
Temperature  
Mean Temperature 52 °F -  
Max Temperature 61 °F 60 °F 78 °F (2008)
Min Temperature 43 °F 36 °F 19 °F (1970)
Degree Days  
Heating Degree Days 13    
Growing Degree Days 2 (Base 50)    
Moisture  
Dew Point 45 °F    
Average Humidity 76    
Maximum Humidity 93    
Minimum Humidity 53    
Precipitation  
Precipitation 0.00 in - - ()
Sea Level Pressure  
Sea Level Pressure 30.00 in    
Wind  
Wind Speed 1 mph (ESE)    
Max Wind Speed 5 mph    
Max Gust Speed -    
Visibility 10 miles    
Events Rain    
Averages and records for this station are not official NWS values.
T = Trace of Precipitation, MM = Missing Value Source: NWS Daily Summary

Daily Weather History Graph

Daily Weather History Graph

Search for Another Location

Airport:

Trip Planner

Search our weather history database for the weather conditions in past years. The results will help you decide how hot, cold, wet, or windy it might be!

Date:

Astronomy

Feb. 04, 2013 Rise Set
Actual Time 6:59 AM CST 5:47 PM CST
Civil Twilight 6:34 AM CST 6:12 PM CST
Nautical Twilight 6:05 AM CST 6:41 PM CST
Astronomical Twilight 5:36 AM CST 7:09 PM CST
Moon 1:31 AM CST (2/4) 12:16 PM CST (2/4)
Length of Visible Light 11h 38m
Length of Day
10h 47m
Last Quarter, 37% of the Moon is Illuminated
Feb 4
Last Quarter
Feb 10
New
Feb 17
First Quarter
Feb 25
Full
Mar 4
Last Quarter

Hourly Weather History & Observations

Time (CST) Temp. Dew Point Humidity Pressure Visibility Wind Dir Wind Speed Gust Speed Precip Events Conditions
12:53 AM 43.0 °F 39.0 °F 86% 30.09 in 10.0 mi Calm Calm - N/A   Clear
1:53 AM 44.1 °F 39.9 °F 85% 30.08 in 10.0 mi Calm Calm - N/A   Clear
2:53 AM 44.1 °F 39.9 °F 85% 30.06 in 10.0 mi Calm Calm - N/A   Clear
4:53 AM 44.1 °F 41.0 °F 89% 30.04 in 10.0 mi Calm Calm - N/A   Clear
5:53 AM 43.0 °F 39.0 °F 86% 30.05 in 10.0 mi Calm Calm - N/A   Clear
6:53 AM 43.0 °F 41.0 °F 93% 30.05 in 10.0 mi Calm Calm - N/A   Clear
7:53 AM 46.0 °F 42.1 °F 86% 30.06 in 10.0 mi Calm Calm - N/A   Clear
8:53 AM 51.1 °F 42.1 °F 71% 30.06 in 10.0 mi Calm Calm - N/A   Clear
9:53 AM 55.0 °F 39.9 °F 57% 30.06 in 10.0 mi East 3.5 mph - N/A   Clear
10:53 AM 57.9 °F 41.0 °F 53% 30.06 in 10.0 mi SE 4.6 mph - N/A   Clear
11:53 AM 57.9 °F 43.0 °F 58% 30.04 in 10.0 mi SSE 3.5 mph - N/A   Mostly Cloudy
12:53 PM 60.1 °F 45.0 °F 57% 30.00 in 10.0 mi SSE 4.6 mph - 0.00 in   Overcast
1:53 PM 59.0 °F 48.0 °F 67% 29.97 in 10.0 mi ESE 4.6 mph - 0.00 in Rain Light Rain
2:53 PM 60.1 °F 48.0 °F 64% 29.95 in 10.0 mi Calm Calm - 0.00 in   Overcast
3:53 PM 61.0 °F 48.9 °F 64% 29.94 in 10.0 mi Calm Calm - N/A   Overcast
4:53 PM 60.1 °F 50.0 °F 69% 29.93 in 10.0 mi East 3.5 mph - 0.00 in   Overcast
5:53 PM 57.9 °F 50.0 °F 75% 29.93 in 10.0 mi ESE 4.6 mph - 0.00 in   Overcast
6:53 PM 57.0 °F 48.9 °F 74% 29.94 in 10.0 mi East 3.5 mph - N/A   Overcast
7:53 PM 55.9 °F 48.0 °F 75% 29.94 in 10.0 mi Calm Calm - N/A   Scattered Clouds
8:53 PM 52.0 °F 48.0 °F 86% 29.95 in 10.0 mi Calm Calm - N/A   Clear
9:53 PM 51.1 °F 48.0 °F 89% 29.96 in 10.0 mi Calm Calm - N/A   Clear
10:53 PM 48.9 °F 46.9 °F 93% 29.96 in 10.0 mi Calm Calm - N/A   Clear
11:53 PM 48.9 °F 46.9 °F 93% 29.94 in 9.0 mi Calm Calm - N/A   Mostly Cloudy